カタログに戻る

STARLINK-35790

運用中通信VLEO
NORAD 67055·PAYLOAD·🇺🇸 United States

打ち上げ Dec 11, 2025 から Cape Canaveral Space Force Station

Loading…

次のパス (今後24時間)

TLE

最新Source: CelesTrak SupGP

元期: Sep 14, 2026, 21:10 UTC

1 67055C 25294AB  26257.88243056  .00046721  00000+0  16923-2 0  2572
2 67055  43.0033  49.7866 0001751 274.7229  17.2415 15.27553402    10

AllMySatでSTARLINK-35790をリアルタイム追跡

Download on the App Store